Wind_Speed
14 13 13 12 11 11 10 9 9 9 8 8 7 7 8 10 11 11 11 13 13 10 10 10 10 10 8 7 7 7 7 7 10 12 16 19 17 18 15 12 12 13 12 11 13 13 13 13 13 14 12 10 9 8 10 9 4 5 5 2 5 2 5 6 6 5 4 4 7 6 2 6 11 7 5 7 11 11 12 12 12 16 17 24 37 52 51 41
15 14 13 12 12 11 10 10 9 8 8 7 6 7 8 10 11 11 12 13 13 10 9 10 10 9 8 7 7 6 6 9 14 17 24 24 17 17 18 17 16 14 11 12 14 14 12 11 11 11 8 8 8 7 6 3 3 4 5 4 1 4 6 7 8 9 5 2 6 8 4 4 9 8 3 3 9 11 11 11 12 15 17 22 29 43 49 42
16 15 14 13 12 11 10 10 9 8 7 5 6 7 8 10 11 11 12 13 13 11 9 10 10 10 8 8 6 4 4 10 14 20 27 25 21 20 19 20 19 14 14 15 15 14 13 13 13 10 7 8 7 8 4 0 2 3 4 5 4 3 5 7 7 10 7 6 4 9 3 2 8 6 3 4 5 9 11 9 10 13 14 18 20 26 37 40
17 16 14 13 12 11 10 9 8 8 5 3 4 5 7 10 11 11 12 12 12 11 9 10 11 10 8 7 6 3 4 10 11 14 20 22 23 23 21 20 19 16 16 16 16 15 15 15 14 11 8 8 8 9 6 3 2 3 5 4 6 5 4 5 6 10 6 5 3 5 2 5 8 4 5 6 3 4 10 10 12 14 13 16 17 17 23 30
18 16 15 14 12 11 10 9 7 7 2 2 3 4 7 9 11 11 12 12 12 12 10 11 11 10 8 7 6 3 6 6 1 1 9 19 21 21 21 19 18 17 16 16 16 15 15 14 12 10 8 7 9 8 5 7 1 2 8 2 6 7 5 5 4 8 2 1 1 1 4 6 6 5 5 5 2 3 9 13 15 16 14 15 16 15 15 17
19 18 16 14 13 11 10 8 7 6 1 2 1 3 7 9 11 11 12 12 12 13 11 11 10 9 8 7 6 4 7 3 5 5 7 15 18 19 20 19 18 17 15 15 15 15 13 12 10 9 8 8 11 9 4 5 2 3 8 4 4 4 5 7 5 5 5 2 4 2 5 3 4 7 4 2 7 8 9 17 18 16 16 15 14 14 12 12
20 19 17 15 13 12 10 8 6 5 1 3 2 4 7 9 11 12 13 13 13 13 11 10 10 9 8 7 4 4 8 10 8 2 7 10 15 19 21 19 18 17 16 16 15 14 12 11 11 9 9 9 10 10 6 6 4 4 8 8 4 5 7 8 6 5 4 3 5 5 2 1 3 5 6 5 11 9 8 19 19 16 17 15 14 13 10 10
22 20 18 16 14 12 10 7 6 4 1 3 3 4 7 9 11 12 13 13 14 13 10 11 10 10 9 6 4 5 10 14 6 9 7 7 12 16 19 18 17 17 17 18 16 14 12 12 12 9 9 9 10 9 8 7 5 7 10 9 5 4 11 10 7 1 3 3 2 3 4 2 4 1 6 6 12 10 6 16 19 15 15 14 13 13 11 9
23 21 19 17 14 11 9 7 5 3 2 3 4 4 7 9 11 12 13 13 14 12 11 11 10 11 10 5 6 7 8 10 9 9 7 7 9 14 19 18 19 19 17 18 18 16 13 10 11 10 10 11 13 11 10 8 5 6 8 8 7 7 9 10 10 3 2 2 1 3 5 3 4 1 6 6 11 12 5 11 16 13 12 12 12 10 10 10
25 22 19 17 14 11 8 6 4 3 2 3 5 5 7 9 11 12 12 13 13 12 11 12 10 10 9 6 8 7 2 8 10 9 9 9 9 14 19 19 20 21 17 17 18 17 14 11 12 10 10 11 12 12 11 10 9 9 9 9 10 10 8 13 13 2 2 2 1 5 5 4 5 1 3 8 12 12 7 10 13 11 12 12 11 9 8 9
26 23 20 17 14 10 8 5 4 3 2 3 5 6 7 9 11 11 11 12 12 12 11 11 11 10 7 7 8 6 3 6 8 10 12 11 12 16 20 21 20 21 18 17 18 18 17 15 14 9 8 8 9 11 10 10 12 11 10 10 11 11 12 16 13 4 3 3 3 7 5 5 6 2 2 9 13 11 9 11 12 10 13 12 10 11 7 7
27 24 21 17 13 10 7 5 4 3 2 3 5 6 7 8 10 11 11 11 11 11 11 10 10 8 7 8 11 12 3 1 5 9 12 13 13 15 19 20 19 21 19 16 16 18 18 17 15 12 9 8 10 9 6 9 13 11 8 9 12 13 12 15 13 6 3 4 5 5 4 5 6 5 3 10 11 10 6 7 12 11 13 12 10 10 7 8
29 26 22 18 13 9 7 5 4 3 2 3 5 5 6 7 8 10 10 11 11 10 11 10 9 7 7 6 14 22 13 4 5 7 11 12 11 13 15 18 18 18 19 17 16 16 16 16 16 14 11 11 11 9 9 11 12 9 8 9 10 10 10 14 11 6 3 4 4 1 3 2 4 6 6 10 9 11 6 5 8 10 13 13 10 10 9 10
31 28 23 19 13 8 6 4 3 3 2 3 5 5 5 5 5 7 8 9 9 9 10 9 9 6 7 8 15 18 13 6 7 8 11 12 11 13 14 16 15 16 18 18 17 13 12 14 14 12 10 11 12 12 13 11 9 8 9 9 7 8 8 8 7 6 6 5 5 4 2 5 7 6 8 9 9 11 8 6 7 8 13 13 10 11 10 10
33 30 25 20 13 7 5 3 3 3 2 3 5 6 6 5 5 6 6 7 7 8 9 8 9 6 5 11 15 10 11 8 9 11 12 13 13 11 12 13 13 15 15 14 14 10 9 10 9 9 9 12 13 12 11 8 8 8 9 7 7 8 4 4 6 6 7 5 8 7 4 3 10 6 9 9 9 11 9 7 7 7 12 12 9 11 10 10
36 33 28 21 14 8 4 2 3 3 3 4 5 6 8 7 6 6 6 8 7 9 9 5 12 11 6 5 5 9 13 12 13 13 13 14 13 11 11 11 11 13 12 11 10 9 8 8 8 8 10 11 11 9 8 7 8 8 8 8 8 8 3 6 7 8 9 5 9 9 2 3 7 9 7 8 5 9 9 8 7 6 11 12 9 11 11 10
38 36 31 24 16 8 3 1 2 3 4 6 6 7 9 9 10 9 8 10 8 10 10 7 10 12 8 7 2 8 14 15 15 16 15 15 15 13 12 10 10 11 11 10 10 9 9 8 7 8 9 9 9 9 8 7 8 7 7 7 7 8 3 3 5 8 9 6 7 9 5 6 6 12 5 6 5 6 6 7 8 5 9 10 7 9 11 12
38 37 34 27 18 8 2 1 2 3 6 9 9 8 9 11 12 9 8 10 7 6 9 12 10 7 7 13 13 12 14 16 17 17 16 15 16 15 11 9 9 10 10 9 10 10 8 7 7 7 8 8 9 9 8 9 9 6 5 6 7 7 5 2 3 6 10 9 8 8 7 8 11 12 7 8 8 6 4 5 7 7 10 7 9 8 10 13
37 37 35 29 20 9 3 2 2 4 9 12 12 11 10 8 7 4 6 10 8 5 6 8 11 7 4 9 18 17 16 18 17 17 17 16 16 14 10 10 9 10 10 8 9 11 8 6 8 8 8 9 10 11 11 13 14 10 5 6 8 6 5 6 3 5 10 9 7 8 7 6 9 8 5 7 6 1 2 3 7 10 9 4 4 6 8 11
36 36 35 30 21 10 4 2 1 6 13 12 8 7 4 3 3 4 8 11 10 11 10 8 16 15 11 5 14 16 16 19 16 15 18 17 15 13 10 10 10 10 10 9 9 11 9 7 8 9 10 13 14 15 15 17 17 13 8 4 8 7 5 7 4 5 8 8 7 9 8 7 6 4 2 2 6 4 2 3 9 10 8 5 3 3 5 7
35 35 34 30 22 11 3 2 2 9 14 9 4 5 4 2 2 2 7 12 16 19 20 12 14 18 18 13 8 11 10 14 14 14 17 17 14 12 10 10 11 9 10 13 11 9 10 9 11 13 15 16 16 17 16 18 17 10 7 6 7 8 6 7 6 5 7 6 7 9 8 7 5 4 5 5 7 7 4 7 12 13 8 4 5 3 1 3
34 33 32 30 23 14 4 1 5 10 11 6 6 10 8 7 7 2 3 9 14 21 23 19 17 16 17 20 9 12 10 11 14 14 16 17 14 12 10 12 12 9 11 14 10 9 10 10 14 16 16 16 16 18 16 15 12 5 5 8 7 7 6 6 7 4 5 5 7 9 8 7 5 6 6 7 9 8 9 10 12 14 8 2 4 5 4 7
34 32 31 29 25 17 8 2 6 10 11 9 9 12 12 11 8 7 7 8 10 16 19 18 19 16 16 18 8 11 12 13 14 15 18 17 14 13 11 12 13 12 12 13 11 10 9 11 16 17 16 17 17 17 12 7 6 6 7 8 8 8 7 4 6 6 7 8 7 6 6 7 7 8 6 9 10 8 10 13 14 14 11 5 6 8 8 8
33 32 31 28 26 19 10 5 5 11 15 15 17 18 18 15 10 10 9 7 9 12 16 18 18 15 16 16 11 11 11 11 12 15 19 18 13 13 13 12 13 13 12 15 16 14 12 13 16 17 17 18 19 15 9 6 6 9 11 10 10 9 8 7 6 6 9 10 8 4 3 3 5 7 6 8 7 7 9 13 13 12 12 10 10 11 10 8
31 32 30 28 26 19 10 8 8 13 13 14 19 21 19 14 9 9 8 5 8 10 15 17 15 15 19 18 15 13 12 11 13 13 19 20 15 12 11 10 10 12 14 18 17 13 14 15 15 18 18 18 17 11 8 9 7 9 11 13 15 11 8 11 8 6 6 8 9 8 4 1 4 6 6 5 6 8 9 10 11 11 12 11 10 10 10 9
31 31 30 29 26 21 11 5 7 11 12 15 20 17 12 10 7 8 6 5 7 8 13 14 11 14 19 17 14 13 12 12 14 15 18 22 19 13 10 9 8 11 14 15 12 8 11 16 16 14 12 13 12 9 10 12 8 8 10 12 16 13 9 12 11 7 5 4 6 9 6 2 4 7 6 4 5 8 9 9 11 11 10 10 9 9 9 9
31 30 30 28 26 24 11 6 11 12 10 10 13 10 6 6 7 6 5 5 6 6 11 12 8 14 17 15 16 13 10 10 12 17 17 21 19 14 12 11 8 10 12 9 8 6 9 17 17 11 9 9 8 8 12 14 10 8 8 9 12 12 10 12 12 7 6 4 3 7 9 5 4 7 9 7 6 8 8 10 11 11 11 11 10 10 10 9
32 30 30 27 24 22 13 12 15 15 13 9 6 5 6 6 6 5 4 4 3 3 9 9 6 11 13 15 18 15 11 11 12 15 18 22 19 14 13 16 13 12 13 10 8 8 10 16 15 11 10 10 9 10 13 14 11 8 9 8 8 11 10 10 10 7 7 7 4 7 10 5 4 7 10 9 9 9 9 11 12 12 12 12 12 12 11 10
32 30 30 29 22 15 11 10 11 16 19 16 11 8 8 7 5 4 5 4 2 1 5 7 5 8 11 13 18 17 14 12 10 12 18 20 18 14 11 15 16 14 15 14 11 10 10 13 11 8 8 10 11 12 13 14 11 7 11 12 9 8 10 9 9 8 7 8 6 8 10 5 3 6 7 6 8 9 9 10 12 12 13 12 13 12 11 11
32 30 29 30 22 11 10 12 17 17 16 15 13 11 8 6 4 5 6 4 4 4 5 6 7 11 14 14 16 17 17 15 10 11 15 15 17 16 11 13 15 13 12 14 14 15 13 11 11 9 9 10 11 11 14 16 12 9 10 11 7 6 9 8 7 8 6 5 7 10 12 7 3 5 5 5 8 11 10 10 12 12 13 12 12 12 12 11
32 29 28 29 24 14 10 11 15 12 10 11 11 10 7 5 5 6 7 3 6 9 8 7 10 14 16 17 14 15 19 17 12 12 13 12 15 14 11 11 11 9 10 11 12 16 17 11 8 8 9 11 12 13 14 9 6 7 6 5 5 6 7 7 6 7 5 5 8 12 16 12 4 4 5 7 11 13 12 12 14 14 13 12 11 12 12 11
32 29 27 26 23 16 13 15 15 14 11 8 6 6 5 5 7 7 7 5 5 7 10 10 12 14 17 20 15 16 18 15 14 14 13 12 12 12 13 10 8 8 9 9 10 12 14 11 9 8 9 12 13 11 9 4 2 6 6 4 6 5 4 5 6 5 5 7 8 11 14 8 2 4 9 13 13 14 13 13 14 15 14 13 12 12 11 11
33 30 27 22 17 17 19 20 20 18 14 8 6 6 5 6 8 8 10 8 2 3 7 10 13 15 17 17 15 16 17 15 15 15 15 14 12 13 16 16 14 11 8 9 9 9 10 12 14 12 9 12 13 8 6 6 7 8 7 6 7 6 4 5 5 5 6 8 8 9 6 3 5 6 11 15 14 15 15 14 14 14 13 12 13 13 12 12
34 29 26 21 18 20 22 19 17 16 12 9 6 6 8 9 9 9 12 13 7 5 7 8 11 15 17 15 14 15 15 15 17 15 14 14 12 11 14 18 20 15 9 9 8 8 10 10 12 13 9 11 14 10 8 9 8 9 9 9 8 6 5 5 5 6 6 4 5 7 3 4 5 7 13 15 14 15 14 14 13 13 13 12 12 13 12 12
33 28 25 21 20 21 21 19 17 14 10 8 6 7 11 9 8 9 11 12 12 11 10 10 10 12 14 14 15 18 15 13 17 16 13 13 12 11 12 14 19 17 11 8 6 8 11 9 10 13 12 12 14 13 12 12 9 8 8 9 8 7 6 5 6 7 4 1 1 3 1 4 5 9 13 13 13 14 13 13 13 13 13 12 12 12 11 11
33 30 23 18 19 20 19 18 17 15 10 7 7 9 10 8 9 9 9 11 13 14 14 13 11 11 11 11 13 19 17 13 16 15 12 14 15 15 14 12 17 19 14 9 5 6 9 8 9 14 15 14 12 12 15 14 8 5 6 8 8 8 7 5 6 7 4 2 2 2 4 6 8 8 11 14 14 14 13 13 12 13 13 11 10 10 10 10
30 25 18 17 20 20 19 18 17 16 11 8 10 11 9 10 13 11 11 13 14 15 14 10 9 11 11 10 11 16 16 12 14 12 10 13 13 15 18 14 15 20 18 13 7 6 7 7 9 14 15 14 11 9 13 15 11 6 6 5 5 7 5 3 3 3 5 6 4 7 8 8 8 7 10 15 15 14 14 13 13 12 12 11 10 10 11 11
24 17 16 20 22 22 21 19 19 15 8 8 13 13 11 11 14 15 15 16 17 16 13 9 8 11 12 11 11 14 16 13 13 12 10 11 10 13 17 15 15 18 20 17 10 6 7 7 8 11 11 11 11 9 9 9 11 10 7 4 4 5 5 4 3 3 6 6 4 8 12 10 8 7 12 15 14 15 15 13 13 13 11 11 10 10 11 10
19 11 10 16 19 23 23 19 19 12 8 10 12 11 11 14 16 17 17 17 17 16 12 11 10 9 11 14 12 13 15 13 13 12 10 9 8 12 16 13 13 16 19 17 11 7 8 7 6 8 10 11 10 8 7 7 9 10 9 8 6 5 5 5 4 4 6 5 5 8 8 5 4 8 15 17 15 16 15 13 12 12 12 11 10 10 10 9
13 5 8 20 18 18 22 17 13 10 9 12 12 10 12 14 16 19 21 20 15 11 11 13 12 10 11 15 14 12 13 14 14 11 10 11 10 12 15 14 12 16 18 16 11 8 8 5 5 6 11 12 8 7 9 9 9 9 9 8 8 6 5 5 4 5 5 4 3 5 4 1 2 10 16 17 17 16 14 13 12 11 12 11 10 10 9 9
9 4 9 19 12 9 17 11 9 10 9 11 12 13 14 13 14 18 22 23 18 13 13 14 14 12 11 13 14 12 10 11 13 12 10 12 12 10 12 14 12 13 14 13 10 8 6 5 5 6 8 10 8 9 12 13 10 8 8 8 9 8 6 6 6 7 6 5 3 2 2 1 1 6 14 15 16 15 15 15 12 12 13 11 10 10 9 9
7 4 9 14 11 1 8 8 8 8 9 11 13 14 14 13 14 17 18 20 19 16 14 13 14 14 12 12 12 11 11 10 12 13 11 12 15 12 11 14 16 13 10 9 10 9 5 4 7 7 8 10 10 8 10 11 9 8 8 8 7 7 7 7 5 4 5 5 6 5 3 2 3 2 11 14 14 15 15 15 13 12 12 11 11 10 10 9
5 8 17 27 25 14 10 10 10 10 11 12 15 17 16 14 15 17 17 18 17 15 14 13 14 15 13 12 12 12 12 11 13 15 13 14 16 13 13 16 17 14 9 7 10 8 3 4 7 8 7 10 10 6 6 8 7 8 9 7 7 6 6 8 6 2 2 5 5 3 1 2 0 5 10 12 14 15 14 14 14 12 11 11 11 11 10 9
6 7 14 29 30 16 9 10 10 10 12 14 17 19 18 16 17 18 18 17 15 14 14 14 14 14 13 13 13 14 11 9 13 16 15 13 8 5 9 13 13 12 9 5 4 4 3 5 8 8 7 7 8 7 7 8 8 7 8 9 10 11 11 10 7 2 2 5 6 3 1 3 5 7 9 12 14 15 13 13 13 12 11 11 10 10 9 9
7 5 5 17 23 14 9 11 10 10 13 16 18 19 19 17 17 20 21 18 18 17 14 11 13 15 15 14 15 16 14 10 11 12 13 13 6 4 6 11 13 12 7 3 2 3 5 6 7 8 8 7 7 7 7 7 8 7 10 13 14 15 15 11 6 4 3 6 8 5 1 5 8 9 10 12 14 14 14 14 12 11 11 11 9 9 9 8
5 5 4 8 11 10 10 11 12 12 13 14 14 17 20 18 16 20 22 19 20 21 16 11 13 15 16 17 15 15 16 16 13 10 11 12 6 5 7 12 13 9 3 7 1 5 5 7 10 12 11 10 10 10 9 9 9 9 12 17 17 16 16 11 5 5 5 5 7 4 7 12 11 12 12 12 14 14 13 13 12 11 11 10 10 9 8 8
4 5 6 5 5 8 10 12 14 13 14 14 10 11 19 20 17 17 19 18 19 19 16 14 15 15 15 17 14 13 17 19 16 14 13 13 8 7 9 12 10 7 6 4 4 6 5 8 14 16 15 15 15 15 14 11 11 12 13 15 16 15 15 12 7 6 5 5 6 3 13 14 12 14 15 14 14 14 13 13 12 11 10 10 10 10 10 10
5 5 7 9 9 8 8 10 13 15 19 19 13 13 19 21 20 17 15 16 17 15 13 13 16 19 19 18 14 11 14 16 14 16 16 15 12 9 9 12 10 8 6 6 7 6 6 7 11 14 16 18 18 16 13 9 10 14 13 11 11 12 12 10 7 7 6 5 4 3 10 11 11 14 15 15 15 13 13 12 11 11 11 11 11 11 11 11
7 6 8 11 11 11 13 15 16 16 18 17 13 16 20 21 21 18 13 14 15 16 17 14 17 21 21 20 16 11 12 12 11 14 14 13 14 10 8 10 10 9 7 8 7 6 5 6 9 13 14 17 18 16 11 8 10 13 13 12 10 11 11 9 8 7 6 6 6 5 6 7 7 10 13 16 14 12 12 12 11 12 12 12 12 11 11 11
7 5 6 10 11 12 13 15 15 14 14 12 11 15 19 22 23 19 15 15 14 15 18 19 21 23 20 20 18 14 13 13 12 13 12 12 12 9 7 8 9 9 10 10 8 6 5 5 7 9 10 12 16 17 13 10 11 12 13 13 11 10 10 10 8 7 6 6 6 5 5 5 3 4 12 17 14 13 14 12 12 12 12 12 11 10 10 9
12 12 10 9 9 10 11 11 12 11 10 10 11 13 16 21 24 21 18 18 17 15 16 19 23 21 18 21 22 18 17 16 16 16 15 13 11 8 7 8 9 9 11 11 8 6 5 5 5 6 8 8 12 16 15 12 12 14 14 14 13 11 10 9 8 7 7 5 5 4 5 5 3 7 14 15 14 15 15 13 11 10 11 11 9 8 8 7
14 14 12 8 8 9 10 10 11 10 9 10 12 14 16 17 19 19 15 15 22 23 18 18 20 16 14 19 22 19 19 18 17 17 15 14 14 11 9 10 12 10 10 10 8 7 7 6 5 6 6 6 10 15 13 11 11 12 11 12 13 12 10 9 8 8 8 6 5 5 2 3 8 13 15 14 14 14 12 11 10 9 10 9 8 8 8 7
Wind_Direction
345 340 337 333 329 326 321 316 311 305 297 285 271 260 244 230 224 218 211 198 196 205 205 207 212 216 216 221 232 240 252 261 263 248 236 246 237 235 249 247 248 252 253 248 244 257 258 246 247 254 261 266 260 256 254 260 274 273 289 279 261 341 19 10 50 53 22 68 89 89 41 95 112 106 117 105 92 97 89 88 76 70 72 81 112 129 139 150
346 343 340 336 333 329 325 320 314 308 300 285 270 262 243 225 217 212 206 194 196 201 194 201 206 207 209 213 228 237 255 262 261 255 245 246 243 238 243 244 251 251 236 233 238 244 251 251 250 249 253 265 272 265 241 233 268 275 302 306 322 11 0 6 51 54 26 19 95 96 53 74 111 110 141 120 113 122 100 98 89 83 91 95 112 127 137 146
349 346 343 340 336 333 328 324 318 312 302 278 271 263 235 215 209 204 199 191 194 195 189 195 198 202 204 205 222 232 266 273 263 257 251 245 239 237 238 236 240 242 225 222 235 243 254 266 276 282 276 270 274 268 264 56 293 323 312 313 9 4 354 354 29 60 37 336 49 97 75 81 104 107 144 64 92 140 118 115 108 98 107 108 114 126 138 144
352 350 347 344 339 336 332 327 323 317 302 246 274 254 213 201 199 196 191 188 188 189 190 190 192 197 195 200 202 185 274 278 265 254 246 234 230 230 230 230 229 230 222 227 246 259 266 272 282 290 284 284 279 266 267 264 289 8 307 320 328 313 46 356 9 61 49 336 30 103 81 91 98 78 101 73 26 149 114 125 126 115 116 116 121 132 143 147
355 353 350 347 343 340 336 331 330 324 295 195 288 229 189 190 188 186 183 182 182 187 189 186 189 189 190 199 179 177 261 260 306 310 215 211 217 221 219 219 221 220 217 230 250 261 267 267 271 275 271 274 273 271 254 252 292 326 283 316 305 313 35 349 37 66 11 280 316 135 92 90 113 89 91 112 124 100 104 122 121 120 125 123 130 138 146 152
357 355 353 350 348 345 342 338 337 335 281 175 278 187 178 180 179 179 179 178 179 184 187 182 178 177 187 181 162 215 243 249 23 52 156 188 201 209 208 208 212 210 213 231 247 254 257 257 261 264 264 260 262 278 279 266 331 323 303 318 286 348 355 315 65 60 337 320 321 35 91 79 114 107 94 83 81 69 94 117 116 120 128 126 129 132 141 162
358 357 355 353 352 350 348 345 346 351 18 153 143 171 173 173 174 174 175 175 177 183 185 175 167 171 173 155 164 223 237 275 308 150 152 173 190 204 205 202 202 201 212 229 239 247 250 249 253 255 263 267 262 272 280 276 296 290 280 274 305 23 286 285 68 59 5 310 325 37 113 147 90 114 134 111 87 70 80 111 117 121 129 132 129 128 141 168
359 358 356 356 355 353 352 350 355 360 40 135 140 164 170 169 172 171 172 173 176 181 175 165 162 166 159 155 215 229 236 253 235 155 162 168 182 198 200 196 195 197 212 227 233 242 249 249 252 258 261 265 266 285 307 287 265 254 264 284 326 323 284 314 5 11 147 253 316 52 265 148 92 127 139 121 106 105 102 117 121 124 132 133 129 135 144 161
0 360 358 358 357 357 356 355 3 8 47 117 137 155 170 167 168 169 171 174 176 175 165 163 166 168 167 186 246 252 238 218 170 154 164 165 181 189 190 191 192 198 212 224 233 242 246 250 250 256 263 271 281 301 311 287 265 274 295 320 301 293 314 310 291 259 125 305 127 172 267 89 87 80 123 132 117 118 141 127 123 129 131 126 128 140 142 147
0 1 359 359 358 0 1 2 12 21 61 114 137 153 170 166 168 171 172 176 173 170 165 167 170 169 183 218 247 253 183 151 157 166 164 170 186 181 186 193 192 199 215 223 230 238 242 253 257 262 269 278 295 304 296 280 293 316 316 311 301 311 312 275 275 323 56 316 205 246 257 115 109 226 162 148 124 121 154 135 128 135 125 123 129 139 140 133
1 1 0 360 360 2 5 11 22 31 83 122 136 153 167 166 171 172 174 176 172 174 170 174 176 172 209 242 243 238 124 142 168 157 156 168 178 181 190 197 195 200 215 225 229 236 241 251 260 271 275 276 286 276 271 278 282 287 288 290 290 280 265 267 278 272 235 191 192 271 269 132 124 228 224 138 127 131 162 144 139 149 128 130 133 135 139 117
2 2 1 0 1 4 7 14 30 39 82 127 142 156 165 169 175 174 177 176 175 180 173 180 178 178 244 263 243 241 251 172 177 155 158 165 177 191 196 197 199 205 215 226 230 234 241 251 258 263 269 278 278 264 289 313 292 280 276 276 275 269 263 261 249 211 221 168 168 276 271 167 160 208 148 126 131 127 150 154 150 161 139 134 135 134 140 122
4 3 2 1 1 6 9 18 39 49 76 121 141 152 160 168 177 179 182 179 180 183 177 182 178 200 262 271 240 237 241 231 177 169 170 170 185 194 197 201 203 211 220 231 237 235 237 247 256 264 270 274 275 279 300 302 290 289 279 268 268 267 261 249 229 168 181 166 145 286 303 259 201 200 162 137 142 128 142 188 160 165 147 137 138 138 140 131
6 4 4 2 360 5 9 23 41 49 76 109 134 144 155 163 175 181 185 181 179 181 181 180 179 211 250 262 257 231 213 211 192 192 186 183 194 190 196 206 205 215 222 232 244 249 250 251 252 264 273 268 272 283 288 286 277 275 266 262 260 259 259 232 194 166 188 158 145 153 86 293 266 210 171 152 157 146 149 182 183 175 146 138 142 140 142 137
8 6 6 2 358 1 7 28 44 61 94 108 123 129 140 151 162 170 174 168 170 179 179 182 194 222 257 255 262 219 185 217 218 206 195 193 201 193 199 209 208 216 222 232 246 260 272 267 255 253 259 256 262 272 274 276 269 260 253 254 246 251 257 163 165 188 205 172 178 194 130 218 267 243 169 163 171 162 157 172 191 184 143 140 147 142 149 144
10 8 6 4 359 355 1 27 48 79 105 114 123 126 130 135 141 146 154 156 162 171 167 188 202 212 273 269 233 191 196 220 223 212 198 200 209 201 196 203 210 215 222 231 239 252 253 255 258 253 257 254 248 251 258 260 257 246 238 251 254 254 232 157 181 200 219 214 180 210 232 107 291 283 170 159 198 179 171 170 179 186 145 141 146 146 154 149
11 10 7 5 359 350 353 11 57 93 111 116 118 122 125 126 131 134 142 148 156 175 185 238 223 204 256 288 225 201 210 212 213 210 199 201 214 209 191 193 211 211 216 222 224 238 235 232 245 247 250 252 248 244 245 248 254 245 227 239 244 249 263 135 178 194 205 230 191 200 208 141 228 263 196 154 235 220 189 172 175 167 115 122 149 158 155 149
12 10 8 6 3 0 7 6 45 109 131 123 117 117 122 126 128 131 142 145 152 198 222 259 256 214 243 252 237 222 210 203 203 204 197 198 215 218 195 196 213 205 210 219 215 220 221 219 230 240 236 232 243 244 239 242 249 249 226 239 240 232 242 179 187 195 185 209 220 206 198 170 196 233 223 185 200 218 199 153 147 126 101 133 179 167 151 152
12 11 9 7 7 15 37 32 57 130 127 115 110 107 104 113 122 157 195 174 168 202 220 214 205 218 282 224 215 223 211 194 195 199 195 194 211 221 204 205 218 208 213 216 203 206 210 215 220 233 238 229 230 231 241 247 244 251 244 245 258 249 235 235 227 175 178 200 213 207 212 197 192 205 220 195 162 163 246 130 115 113 101 126 174 140 140 152
12 12 10 8 8 20 59 63 87 143 128 118 117 115 118 151 177 206 200 202 208 228 242 189 183 223 276 233 194 215 205 183 188 197 193 193 203 214 209 209 218 212 220 223 202 198 206 220 222 224 231 233 233 228 238 253 255 270 300 276 257 261 249 244 242 170 182 213 206 201 218 219 199 156 112 137 97 58 307 63 82 89 88 88 83 100 142 149
10 10 10 9 6 8 43 90 150 160 143 143 205 234 238 280 304 162 176 213 222 233 253 244 208 226 260 269 202 176 177 173 190 200 190 193 200 209 202 201 219 213 216 230 218 197 205 223 228 227 230 233 239 233 228 243 254 269 296 279 244 245 236 210 216 192 179 211 217 205 222 228 202 142 111 99 78 66 45 54 72 78 68 72 82 59 124 140
6 8 9 8 4 359 350 129 170 179 168 177 249 246 260 331 348 337 223 243 232 227 241 249 243 238 248 262 227 158 180 190 198 207 191 187 198 207 192 192 220 220 209 226 226 204 206 227 233 231 235 235 239 242 232 236 250 251 254 259 247 246 245 193 191 201 178 211 227 201 218 233 173 125 104 95 83 72 61 64 82 90 82 63 86 74 37 26
3 5 5 6 3 354 333 271 187 194 203 222 247 246 269 317 341 322 291 277 263 236 230 231 238 240 235 245 218 170 211 209 200 209 191 185 201 210 203 197 216 227 215 215 223 220 210 220 229 232 238 239 237 242 247 256 263 252 244 251 251 243 249 224 188 194 207 232 236 185 212 231 159 132 109 93 90 90 81 76 83 97 105 88 71 77 69 46
0 360 1 3 359 352 333 296 227 220 225 232 249 258 275 300 323 322 306 276 273 256 238 226 222 230 230 229 212 197 223 221 213 208 184 186 205 208 217 216 214 227 224 217 220 229 235 225 218 219 229 238 241 236 233 249 250 242 242 248 258 243 226 245 231 206 216 228 234 209 222 234 141 128 116 100 103 116 103 90 86 92 95 78 67 71 80 93
357 356 356 357 357 354 335 299 255 239 234 232 251 261 266 280 308 326 320 282 265 254 238 227 214 219 221 220 213 205 218 227 230 212 178 187 209 206 216 224 220 226 226 226 224 226 242 244 227 216 215 224 237 238 220 229 243 244 236 233 254 258 226 233 232 211 220 216 218 223 225 140 109 117 116 126 147 134 113 105 101 91 85 80 81 83 82 89
353 353 351 352 352 350 337 295 272 253 237 235 247 258 262 271 312 329 309 274 265 245 214 203 195 199 203 209 207 202 217 222 231 224 181 182 209 218 218 219 223 232 231 231 232 228 235 249 251 237 223 216 219 233 234 232 239 250 239 224 238 248 230 232 226 205 230 226 209 223 223 176 149 150 142 147 139 121 114 116 113 104 98 92 90 90 87 83
350 348 347 346 345 345 332 283 310 290 252 249 244 250 280 290 316 322 285 264 266 231 187 175 169 173 183 199 191 190 219 204 210 230 196 177 201 221 225 224 216 226 241 243 233 227 225 240 250 239 233 234 217 227 238 234 234 244 251 237 238 241 224 232 239 223 227 231 213 235 232 213 183 163 147 145 133 118 123 122 117 115 112 107 101 90 84 79
346 344 343 340 338 336 304 274 305 285 269 322 333 287 309 313 305 288 261 262 254 175 162 158 137 156 186 202 186 191 226 202 193 221 199 179 193 212 221 231 232 220 225 241 242 225 223 240 244 217 215 235 231 231 235 234 236 246 260 250 243 255 240 227 244 248 231 228 211 217 224 220 187 158 145 153 146 125 127 128 121 121 120 116 109 100 96 92
341 341 340 335 334 335 310 282 284 271 276 307 322 314 320 313 296 260 248 260 262 161 153 157 141 166 204 205 187 198 223 221 210 201 184 178 195 216 223 230 244 241 224 229 244 239 225 233 236 213 213 232 233 232 234 238 237 241 261 252 225 246 258 235 237 249 239 240 237 219 220 218 171 154 154 172 153 128 124 125 124 129 132 128 122 120 115 103
335 336 337 334 330 337 334 289 261 268 284 290 297 313 314 286 259 231 230 234 242 221 159 151 168 181 203 203 191 201 215 227 226 185 174 179 195 215 230 225 234 251 239 223 233 249 248 230 220 219 222 230 235 230 230 234 229 221 251 264 235 226 256 250 239 248 244 239 248 254 252 237 166 165 188 190 151 131 123 117 118 124 125 124 124 120 110 100
331 330 331 328 319 311 314 272 255 276 283 269 287 304 290 252 229 231 226 230 255 224 170 160 185 183 198 206 197 198 210 223 216 183 182 188 192 204 221 225 222 237 246 231 221 237 251 241 218 229 228 226 233 231 233 237 223 219 237 271 252 222 236 245 240 241 244 236 226 239 250 245 209 179 165 138 126 124 123 118 113 111 107 105 102 96 94 94
330 326 323 318 309 289 263 251 268 307 310 285 288 281 259 228 225 233 225 233 258 211 178 183 197 192 199 208 206 198 203 218 210 195 197 194 192 202 208 215 211 211 231 236 217 219 237 233 216 229 231 229 234 229 234 252 220 228 234 239 245 234 225 242 245 234 242 256 239 231 241 241 179 156 140 126 123 120 118 116 112 109 104 100 97 91 88 87
331 327 318 311 301 275 260 261 276 297 310 305 284 258 242 231 227 222 222 230 228 155 187 204 203 198 201 208 211 201 199 211 208 199 201 199 199 204 207 213 213 211 218 227 224 215 225 225 212 216 223 227 238 236 219 218 209 222 227 222 233 230 214 233 246 242 240 246 255 265 259 137 117 139 126 116 114 110 106 107 108 108 107 104 103 98 91 86
330 326 318 309 295 275 266 266 266 276 286 276 264 246 233 237 233 221 225 232 236 225 225 230 217 204 202 209 214 207 203 209 208 202 199 201 210 210 205 212 217 219 222 222 226 220 223 223 205 207 214 209 219 233 238 232 220 220 225 229 236 230 225 236 233 239 246 245 275 294 302 142 146 120 110 108 107 106 106 108 108 105 104 102 100 96 91 88
329 326 320 304 284 272 265 257 248 252 262 252 246 239 231 234 231 227 232 234 241 245 235 234 235 219 208 211 216 214 211 210 207 208 208 206 215 220 209 209 214 219 224 217 218 223 231 236 208 207 217 206 202 215 236 248 242 225 221 230 235 223 222 236 240 250 262 46 325 309 44 125 122 107 115 119 114 114 114 113 111 106 102 99 95 95 91 88
331 328 320 292 270 261 251 243 230 226 233 236 237 237 232 233 231 229 236 237 243 250 244 230 226 229 219 212 220 218 214 215 209 206 215 216 215 221 219 212 207 212 222 224 216 218 231 243 227 217 219 213 206 207 217 230 242 241 233 237 240 231 225 229 237 244 243 221 197 165 130 123 127 133 137 131 125 126 124 117 112 106 103 100 94 94 92 87
330 325 313 286 273 257 236 221 208 206 214 228 234 237 238 237 237 238 246 250 251 253 260 255 226 225 227 219 222 216 205 210 218 210 212 221 219 219 220 221 212 210 217 226 230 223 230 246 234 225 220 212 219 237 228 220 220 226 232 231 243 245 245 259 248 225 229 237 202 168 171 160 153 161 152 144 142 141 136 127 122 114 107 102 97 94 91 88
316 306 294 279 267 253 237 211 195 198 207 225 236 240 243 241 240 244 249 256 263 260 265 275 239 217 226 232 226 215 204 202 215 217 216 222 220 216 219 221 217 215 217 219 220 217 227 247 232 222 223 207 208 242 256 230 219 230 246 234 226 241 243 243 241 226 233 241 222 196 192 185 185 173 158 159 157 147 142 137 130 124 116 109 103 98 91 87
301 291 287 274 254 239 229 201 189 203 213 222 234 235 238 245 246 250 253 254 263 265 262 269 257 222 223 236 233 221 215 211 213 214 215 221 215 213 223 224 212 217 224 222 219 211 214 239 235 211 221 220 204 211 236 233 220 230 249 245 230 240 246 233 220 226 233 237 249 234 211 195 198 169 162 165 161 152 148 143 136 128 122 117 109 101 93 86
304 303 279 280 269 219 200 188 191 212 217 223 235 234 233 241 244 248 255 257 261 263 255 257 257 240 230 238 242 234 223 221 221 216 213 220 219 213 220 228 217 210 220 226 223 213 204 225 245 206 210 227 220 197 214 231 226 218 227 236 234 229 228 232 233 234 235 227 236 247 242 259 144 160 168 164 156 154 148 140 134 123 116 110 102 99 94 88
306 308 265 284 299 169 171 184 207 217 224 229 233 235 237 242 244 243 246 250 255 261 262 258 254 252 245 241 244 243 233 228 224 223 223 221 223 219 213 228 233 208 207 218 217 213 203 207 237 219 205 222 226 210 216 227 232 224 216 221 232 230 223 228 233 235 242 239 231 236 225 265 274 164 166 157 149 150 143 134 128 120 116 109 104 104 99 95
280 265 261 291 328 321 200 215 222 224 232 233 231 234 238 241 248 249 244 243 244 248 257 260 254 255 255 249 249 247 240 234 225 225 230 225 225 222 201 214 233 220 200 208 213 214 212 208 229 234 221 224 231 235 238 239 245 250 239 230 233 231 227 232 234 233 248 257 260 252 202 195 323 100 143 147 146 143 136 132 128 122 118 113 111 108 102 99
272 285 288 294 302 296 257 232 229 233 232 235 238 238 237 237 241 246 248 247 243 238 238 240 241 246 252 255 263 265 250 239 236 231 229 230 230 226 210 210 223 221 203 211 214 200 181 209 226 238 238 229 231 245 252 245 253 259 249 242 241 237 233 244 244 205 226 263 269 273 214 173 78 86 119 136 138 134 132 131 129 126 123 121 118 113 108 107
301 296 288 286 286 283 260 241 235 238 239 239 238 236 237 238 238 238 240 243 245 244 238 230 229 237 247 248 253 261 256 241 241 239 233 231 222 219 225 210 205 214 213 212 207 163 162 207 213 225 237 229 227 228 221 221 231 247 248 243 244 244 243 250 247 172 172 236 231 234 247 184 159 132 133 136 133 132 132 130 129 129 129 126 122 120 118 115
296 270 252 272 272 263 249 246 242 244 246 243 240 238 237 236 237 238 239 240 241 246 248 235 230 236 242 242 241 247 250 245 243 240 238 234 199 147 212 194 185 210 214 108 96 182 202 212 208 218 227 224 224 225 221 216 217 230 239 240 243 241 241 246 241 217 214 216 226 244 176 140 138 136 139 136 136 136 134 134 135 134 132 129 127 126 126 122
299 282 269 268 256 238 237 248 249 249 249 246 243 241 238 237 237 234 236 240 238 240 245 236 231 236 236 235 237 239 241 243 243 240 238 233 199 148 191 191 179 184 120 69 87 221 212 214 219 223 227 231 234 236 237 230 228 234 230 230 236 238 240 243 232 232 237 229 250 247 136 141 152 156 156 152 148 145 142 143 141 136 133 131 132 133 132 130
281 278 277 289 273 245 234 231 235 241 248 251 253 247 242 241 240 232 229 234 235 236 242 240 233 234 234 233 236 237 235 237 238 237 236 233 211 160 181 202 186 145 109 105 189 216 222 223 225 227 232 237 241 246 251 250 248 246 233 228 234 232 230 233 231 235 239 249 265 153 137 153 170 171 173 168 158 151 149 149 142 138 139 138 142 144 140 138
277 269 277 297 292 270 259 246 242 243 241 243 248 251 247 243 241 236 227 231 231 226 235 247 239 234 232 230 233 236 233 233 235 234 231 229 218 179 172 205 193 140 146 187 188 204 232 232 228 231 235 238 240 242 250 259 251 241 237 238 235 221 214 216 227 239 242 257 269 163 156 167 174 185 186 169 157 154 151 147 141 142 148 148 149 149 145 143
290 281 294 309 300 286 292 292 287 274 256 249 248 244 244 246 245 241 231 231 229 218 222 237 241 238 236 233 232 232 226 222 231 238 233 225 222 205 184 204 193 153 166 203 197 196 224 235 234 236 235 233 236 234 226 233 245 241 244 250 237 218 210 204 212 232 244 259 266 252 221 192 181 196 179 154 151 153 145 142 148 153 156 155 154 155 152 147
307 312 315 319 310 298 294 288 289 289 276 270 267 248 239 240 243 243 238 234 229 216 216 228 237 238 239 240 238 234 226 219 226 240 239 229 225 210 189 203 198 173 186 209 201 177 192 222 226 238 244 230 228 229 217 218 242 246 246 248 236 218 207 198 202 218 238 258 265 269 257 232 212 163 148 149 154 149 143 150 158 160 158 157 159 158 151 143
313 321 318 307 297 294 294 285 280 284 278 267 264 254 242 236 237 241 243 240 241 232 216 223 236 237 234 240 243 239 233 225 223 231 238 236 225 197 184 205 202 187 194 204 193 159 176 219 211 222 248 233 218 223 214 207 233 244 242 240 231 219 212 206 204 207 216 237 242 238 250 242 193 129 131 144 149 144 149 162 162 160 160 159 163 159 149 139
314 320 318 304 286 282 286 286 279 276 275 270 264 255 250 246 243 244 244 242 244 245 232 222 233 238 231 233 239 242 242 239 231 226 229 238 231 207 197 210 204 196 201 202 186 163 180 209 210 208 229 225 216 223 215 201 221 236 232 232 231 228 227 223 217 212 209 214 223 226 217 101 120 129 132 140 147 149 159 166 160 162 162 160 162 153 142 133
Height
769 768 766 765 764 763 762 761 761 760 759 759 759 760 760 761 761 762 763 764 766 766 768 768 769 770 771 772 772 773 772 772 771 770 766 759 759 760 759 759 759 759 760 760 759 758 755 753 751 748 748 745 742 739 734 727 724 734 745 758 762 754 747 736 734 734 733 734 730 726 724 730 737 732 723 723 729 734 736 737 736 740 742 752 770 777 779 784
769 767 765 764 763 762 761 760 759 759 758 758 758 759 759 760 760 761 762 763 765 766 767 768 769 770 771 772 772 772 772 771 770 766 758 755 758 758 758 758 759 759 759 760 758 756 755 751 746 743 746 747 740 734 733 727 726 738 747 753 753 746 737 725 724 726 727 729 725 725 725 726 731 730 725 731 738 736 740 743 739 746 749 754 768 778 784 786
768 767 765 764 762 761 761 759 758 758 757 757 757 757 758 759 759 760 762 763 764 766 767 768 769 770 771 772 771 773 772 771 769 759 751 753 756 756 757 758 758 759 758 758 757 754 753 748 743 742 746 748 741 734 734 730 730 736 743 754 747 734 731 722 718 722 724 724 722 726 724 724 726 723 725 734 738 736 741 744 744 751 753 755 763 773 782 786
767 766 764 763 762 760 760 758 758 757 756 756 756 756 757 757 759 760 761 763 764 766 767 768 769 770 771 771 772 773 772 773 763 747 745 749 752 753 755 756 756 758 758 757 757 754 751 747 744 744 748 752 742 734 737 734 733 736 740 751 740 725 730 725 717 719 722 721 721 723 724 726 723 719 725 733 741 740 736 737 741 747 750 753 759 767 775 779
767 766 764 763 761 760 759 758 757 756 755 755 755 755 756 757 758 759 761 762 764 765 766 768 768 769 771 771 772 772 775 776 755 739 743 745 747 751 752 754 756 757 757 758 757 754 751 748 746 747 752 754 746 739 739 729 726 739 737 736 731 724 731 724 714 718 719 718 719 721 726 725 720 722 726 731 741 739 729 729 733 738 744 749 753 761 770 773
767 765 764 762 760 759 758 757 756 755 755 755 755 755 756 757 758 759 761 762 764 765 766 767 768 770 771 771 772 772 776 770 746 740 744 743 747 749 750 754 754 756 757 758 756 753 751 748 750 755 754 752 750 744 740 726 724 743 740 728 725 724 729 722 713 718 717 719 722 721 721 718 722 729 726 726 733 728 719 722 729 734 739 744 749 755 767 773
767 765 763 761 760 759 757 757 756 755 755 755 755 755 756 757 758 760 761 762 764 765 766 767 768 770 770 772 773 773 774 760 742 744 745 744 748 748 751 753 753 757 757 756 755 753 751 751 754 754 754 754 749 742 735 728 727 743 744 730 724 724 725 716 711 716 718 723 721 716 718 720 728 731 725 726 727 722 718 720 728 734 737 741 746 752 761 768
766 765 763 761 760 758 757 757 756 755 755 755 755 755 756 757 758 760 761 763 763 765 767 767 769 769 770 772 772 771 768 754 743 745 744 745 748 747 751 752 754 756 755 755 753 751 750 752 753 750 756 754 744 738 733 733 736 740 740 730 725 725 720 712 711 715 718 720 716 717 722 721 723 723 725 727 724 722 721 721 727 733 736 740 745 750 756 763
767 765 762 761 760 758 758 757 756 756 755 755 756 756 757 757 759 760 761 763 763 766 766 767 769 769 771 770 770 771 758 743 742 744 743 745 746 747 750 751 753 754 753 754 750 749 750 751 749 746 753 749 740 739 735 741 745 735 732 730 727 725 719 716 715 713 716 716 715 723 726 721 717 720 728 725 720 722 720 723 728 732 737 741 745 748 751 758
767 764 763 761 759 759 758 757 757 756 756 756 756 757 758 758 759 760 761 763 764 766 766 768 769 768 772 769 771 771 749 737 742 742 742 744 745 747 749 749 751 752 752 751 748 747 746 747 743 737 743 744 742 743 738 743 741 729 730 731 729 728 723 720 715 711 716 718 718 726 728 721 716 725 735 723 716 721 723 726 728 732 739 742 745 748 749 754
767 765 763 761 760 759 758 758 757 757 757 756 757 757 758 758 759 760 761 763 764 766 767 768 768 769 771 769 772 764 742 738 743 741 743 743 744 746 746 748 749 750 750 748 747 744 742 741 736 737 745 746 744 745 739 735 733 729 732 736 734 731 727 721 717 714 717 721 719 721 726 722 721 731 733 720 715 720 724 728 730 733 738 742 745 747 750 752
767 765 763 761 760 759 758 758 757 757 757 757 758 757 758 759 760 761 762 763 764 766 767 767 769 770 770 769 766 753 740 740 742 741 744 742 743 745 745 747 747 748 748 745 744 741 741 738 736 744 748 744 747 748 740 729 729 729 732 744 742 733 731 723 716 715 719 724 716 718 735 735 731 733 724 716 716 719 725 729 730 732 736 741 744 746 751 753
767 765 763 762 760 759 759 758 758 758 758 758 758 758 759 760 760 762 762 764 765 766 767 767 768 769 772 767 752 743 741 741 741 742 743 742 744 744 744 746 745 746 745 743 741 738 739 738 737 743 740 744 750 744 735 728 731 735 735 744 745 743 739 720 711 715 722 724 713 724 756 754 736 728 718 715 717 722 731 731 729 731 734 740 743 746 750 753
768 765 763 762 760 760 759 758 759 758 758 758 758 759 760 760 761 762 763 764 765 767 767 768 769 770 772 761 741 738 741 740 741 741 741 742 742 742 743 743 743 744 743 741 739 736 737 736 736 740 739 744 745 737 738 737 737 741 743 744 746 754 744 715 709 719 726 723 712 730 767 764 739 725 717 714 716 723 732 732 730 730 733 740 741 746 750 752
769 766 764 762 760 760 759 759 759 758 759 759 758 759 759 761 762 762 764 765 765 767 767 768 769 769 769 757 738 737 740 739 740 739 739 740 739 740 740 741 741 741 741 740 739 738 738 737 740 747 746 741 741 747 753 751 743 742 753 756 747 749 741 720 713 719 728 723 714 733 763 761 741 726 716 713 715 721 730 732 730 729 733 739 741 745 750 752
769 767 764 762 761 760 760 759 759 759 759 759 760 760 760 761 762 763 765 764 766 767 767 769 767 767 769 754 738 736 738 738 737 737 738 738 738 737 738 739 739 739 740 739 739 739 739 741 743 746 747 745 747 755 758 759 755 744 752 760 749 744 742 733 722 715 720 724 721 733 752 756 743 726 715 713 715 719 727 730 730 732 734 738 741 743 748 752
770 768 765 763 762 761 760 760 760 760 760 760 760 760 761 762 762 764 764 765 767 766 767 766 761 766 763 745 739 739 734 734 735 735 735 736 737 735 736 738 738 738 738 738 740 740 740 744 747 747 748 751 749 752 764 773 766 750 745 750 745 741 742 742 734 718 715 726 730 732 742 750 742 727 718 715 716 720 725 729 731 733 736 739 740 742 747 752
772 769 766 764 762 761 761 761 761 761 761 761 761 762 762 762 763 764 765 766 767 768 770 764 762 772 762 741 738 735 727 730 732 731 733 735 735 733 734 736 736 737 741 743 743 743 746 746 749 754 754 754 751 753 768 771 758 750 747 746 744 739 740 744 740 725 719 730 735 735 741 744 737 728 721 716 716 720 723 727 732 733 740 746 742 740 745 750
773 770 767 765 763 762 762 762 762 762 762 762 762 763 763 764 765 765 765 766 766 768 765 757 758 763 748 731 728 725 721 725 728 729 731 732 733 732 732 734 735 739 748 753 749 745 747 751 755 762 761 755 751 750 755 751 741 739 739 742 745 742 740 737 732 722 720 732 737 737 741 738 733 728 722 716 715 721 724 724 732 736 742 748 744 742 745 749
774 772 769 767 765 763 763 763 764 763 763 763 764 765 765 765 765 764 763 761 757 751 744 741 745 742 731 721 719 719 719 722 726 727 728 730 731 732 732 734 737 743 749 753 751 742 743 758 763 760 757 749 743 740 738 736 732 731 733 739 742 744 742 733 728 720 716 733 738 733 736 734 729 727 722 719 720 727 729 728 736 742 745 748 748 748 749 751
775 773 771 769 767 765 765 764 765 764 763 763 765 765 759 755 757 759 758 756 748 740 736 734 735 734 727 719 715 715 720 725 726 724 727 728 729 736 738 738 746 751 749 746 744 737 743 761 759 747 743 737 733 731 730 732 731 732 739 743 743 742 739 729 726 721 715 733 739 729 734 734 727 726 723 722 729 735 734 735 743 747 749 752 753 754 753 751
777 774 772 771 768 767 766 765 765 765 765 764 764 761 752 746 748 748 749 753 744 734 735 732 730 729 722 716 713 714 724 732 732 725 723 726 730 739 739 739 751 751 744 743 744 745 752 757 748 736 731 728 728 725 724 727 729 735 742 746 746 739 734 729 725 721 719 733 739 731 736 735 726 725 726 726 733 737 735 736 743 749 752 754 755 756 755 755
778 775 773 772 769 769 767 766 766 765 765 764 762 757 750 746 745 743 745 751 744 731 729 730 730 729 723 719 713 716 727 732 735 728 719 725 732 734 736 741 748 746 742 744 747 752 756 748 735 728 725 726 729 724 724 729 733 739 743 747 748 736 738 742 733 725 723 727 732 733 737 735 728 729 730 730 733 737 737 737 741 746 751 752 751 753 757 760
777 775 775 772 770 769 767 767 767 764 763 762 759 753 749 748 746 746 745 749 746 730 721 720 721 723 722 717 712 720 729 725 726 723 715 724 731 730 734 737 741 744 740 738 740 745 743 730 720 722 723 726 729 725 727 738 743 741 739 743 743 733 735 741 734 728 726 725 726 733 747 746 737 740 740 735 735 738 740 743 745 746 747 749 750 752 756 759
777 776 774 772 772 769 768 768 764 762 761 760 757 749 748 749 745 746 749 754 750 729 716 713 713 715 712 712 713 715 723 722 718 713 708 717 726 729 732 729 734 744 739 732 734 738 732 717 711 719 721 722 728 728 729 738 746 743 735 733 733 729 730 734 733 734 742 745 731 732 764 773 751 747 750 742 741 743 744 747 750 751 751 752 755 757 758 760
777 776 773 773 772 768 769 766 760 761 760 756 752 746 748 748 746 747 752 763 755 728 717 714 712 712 706 710 710 710 728 728 710 702 703 712 716 720 731 729 728 736 731 726 727 728 724 713 709 713 716 719 727 732 729 730 743 747 731 720 722 724 728 732 733 740 753 756 736 727 762 783 766 754 751 746 747 748 749 752 753 755 756 756 758 760 760 761
778 775 773 773 770 770 769 763 759 759 756 751 746 746 749 746 747 748 756 779 762 720 711 713 710 708 703 704 703 716 738 726 708 704 700 709 712 712 729 732 728 731 722 722 733 727 718 717 715 713 718 725 730 735 728 723 739 744 721 712 720 721 728 732 732 739 743 744 741 733 743 769 774 759 749 748 753 756 755 757 757 756 759 759 759 759 759 760
777 775 773 771 770 770 768 764 762 755 751 749 745 748 748 746 750 749 768 796 759 705 703 709 703 701 699 698 700 715 723 711 717 715 693 702 711 712 729 730 725 727 716 726 743 727 712 719 719 715 725 731 729 727 720 717 731 729 712 712 719 721 725 727 731 737 733 741 759 748 736 762 776 756 745 749 755 763 762 759 761 760 760 761 760 761 761 762
776 774 772 770 768 768 765 765 763 754 751 751 749 750 747 748 751 752 778 791 742 699 703 706 704 705 702 702 704 711 711 706 715 707 690 703 708 709 725 723 719 723 714 720 734 722 709 710 708 713 727 729 721 716 711 716 724 716 710 712 713 720 724 724 734 737 736 751 764 750 736 761 781 762 754 760 759 764 764 758 760 760 759 760 760 763 764 764
773 773 772 769 767 767 766 764 758 753 751 751 752 750 748 752 756 772 795 778 732 707 703 704 709 709 708 712 714 714 713 709 703 696 698 707 707 708 713 710 713 721 717 716 722 717 705 697 698 707 717 716 712 710 706 708 710 709 715 718 718 726 727 728 733 732 750 768 761 747 734 751 787 780 762 763 756 756 761 759 760 759 758 760 760 762 765 765
771 770 770 769 767 767 767 760 753 752 752 752 752 749 752 756 762 786 790 750 722 711 702 707 711 705 710 717 718 716 715 710 701 703 711 711 713 717 717 717 718 726 729 724 722 718 710 706 705 704 703 705 710 712 704 699 702 710 722 729 736 742 739 742 742 741 769 779 755 744 733 741 783 783 757 753 747 747 757 760 762 762 761 762 761 763 765 767
770 768 766 766 765 764 763 756 750 752 752 751 752 750 758 769 773 779 763 731 724 713 699 708 708 702 710 712 713 713 714 713 703 706 714 715 720 721 723 727 726 738 747 737 728 724 719 715 710 706 702 702 713 719 714 709 712 721 728 738 755 763 764 771 768 763 775 769 744 736 735 748 772 764 746 748 748 749 754 757 761 764 765 766 766 768 769 770
769 766 763 762 761 759 757 754 752 753 753 751 753 752 762 780 778 761 744 732 723 703 693 701 698 699 708 710 711 708 709 712 704 704 709 711 720 719 718 718 715 732 743 735 733 734 730 719 709 713 711 702 710 723 730 728 725 730 734 744 760 770 785 796 785 776 775 762 742 730 740 768 775 754 744 749 750 751 753 756 761 762 766 768 768 770 772 773
766 764 761 758 757 755 752 754 753 753 753 753 755 759 770 781 766 744 737 728 710 695 694 696 693 698 704 707 708 701 707 712 701 704 710 711 721 722 717 715 710 717 725 729 732 733 741 736 716 716 716 706 708 716 723 723 724 726 723 731 747 755 775 790 783 781 778 765 754 747 758 780 779 761 751 750 752 754 757 759 761 762 765 767 769 772 775 776
763 761 758 755 753 751 749 751 751 753 754 753 757 766 773 772 755 740 733 718 705 699 695 691 694 702 704 703 701 693 700 708 701 704 711 713 720 719 714 714 709 710 718 731 731 723 736 735 709 702 703 701 709 710 707 717 727 721 713 727 741 737 748 764 765 765 770 774 773 772 775 771 765 760 752 752 757 758 762 763 763 767 768 769 774 776 777 779
760 757 755 752 748 746 746 747 749 751 752 754 763 767 759 751 741 733 721 708 703 700 695 694 697 706 709 704 701 694 692 699 702 707 710 709 711 710 707 704 701 704 711 721 726 724 735 731 705 698 700 695 703 705 702 717 728 722 723 734 729 717 727 752 761 753 762 784 783 777 782 771 764 768 757 756 764 763 765 768 768 771 772 773 778 778 779 781
760 756 752 748 744 743 743 743 746 748 749 754 762 758 744 734 726 720 710 701 698 692 696 705 701 702 710 707 703 698 695 700 702 705 711 710 706 702 700 696 692 695 698 706 716 716 726 732 710 701 708 698 692 700 700 700 711 724 734 730 717 716 723 741 763 765 771 787 776 770 785 780 777 781 766 760 769 767 767 770 771 774 775 777 779 779 780 781
762 757 750 742 738 737 737 740 742 744 747 753 755 748 737 729 719 712 706 700 698 692 697 709 700 694 704 707 701 693 694 704 704 704 711 711 705 695 693 694 689 688 687 693 709 710 716 734 720 701 709 703 692 706 715 702 698 712 721 713 719 742 747 746 764 776 781 787 776 767 774 772 769 771 766 765 768 768 768 770 772 775 776 779 780 780 781 781
763 758 747 734 731 732 733 736 737 740 746 750 749 742 733 726 716 708 703 700 700 698 700 703 697 694 699 700 697 691 691 699 701 703 708 708 705 692 685 689 689 688 684 686 702 707 709 732 733 708 704 706 702 714 730 723 708 708 713 712 718 735 745 746 751 760 770 782 780 769 768 769 761 755 758 763 762 764 768 769 771 774 775 778 780 781 783 783
764 760 746 728 724 726 727 732 735 739 742 741 738 732 725 722 715 707 702 699 698 699 700 700 696 698 698 693 691 688 688 693 694 700 703 700 701 694 682 683 686 688 685 684 695 701 705 725 737 721 708 713 717 718 724 727 720 720 726 729 727 725 730 738 741 741 752 773 782 780 782 776 754 741 748 753 755 759 763 767 771 773 775 778 780 782 784 785
767 763 745 726 724 724 726 734 736 735 736 731 728 725 719 716 712 705 700 698 697 693 690 692 694 695 695 693 691 686 686 691 691 695 698 694 697 697 684 678 682 684 687 692 697 701 708 722 733 730 723 724 720 708 706 711 712 718 725 727 729 728 732 749 757 743 737 754 767 779 798 788 748 732 740 745 751 756 759 765 771 775 778 781 782 784 785 786
768 760 741 728 731 730 730 736 734 730 729 724 719 717 714 712 709 704 698 694 695 691 687 689 692 692 692 690 689 685 685 690 690 692 694 690 690 690 682 676 678 679 687 699 700 695 701 716 729 731 724 720 712 700 698 701 701 708 714 714 718 723 731 751 765 753 743 748 747 755 784 784 746 729 736 742 749 753 757 766 772 776 780 782 783 785 785 787
766 757 739 730 734 734 735 737 732 726 722 716 712 710 708 707 706 703 699 695 692 690 689 690 689 691 691 688 688 688 685 687 688 687 688 687 682 677 673 673 676 679 687 699 700 694 700 716 730 733 722 711 705 700 699 700 705 715 715 711 715 721 724 732 740 745 751 756 753 761 784 782 750 733 738 743 748 754 760 767 772 778 781 782 784 786 787 788
770 762 746 734 733 736 737 736 732 727 719 713 711 708 703 701 700 699 698 696 691 687 687 685 684 688 688 686 689 689 686 691 691 682 681 685 681 673 669 671 676 682 688 696 697 699 710 720 729 740 743 736 729 725 720 714 717 723 719 714 715 716 720 724 725 738 753 754 753 770 790 782 753 740 744 746 751 759 764 768 773 778 780 782 785 786 787 789
772 761 747 734 730 733 732 727 725 725 719 714 711 707 703 698 692 691 692 690 687 683 682 680 680 684 684 684 688 686 683 689 691 683 679 682 682 678 674 674 679 683 687 690 690 696 711 718 722 740 755 758 754 746 735 726 723 724 721 719 717 715 720 726 730 745 758 751 745 758 774 771 756 749 752 753 758 764 767 770 774 776 779 782 784 786 788 789
773 761 749 736 725 724 723 720 719 719 716 713 710 705 702 698 689 684 685 686 682 677 677 678 679 682 684 685 689 689 685 684 685 685 683 683 685 684 679 677 682 687 689 691 690 695 709 715 715 725 734 738 737 729 719 717 722 726 723 720 718 716 716 722 734 747 750 747 748 749 757 766 764 759 760 760 762 767 769 772 775 776 780 782 784 787 788 789
777 765 754 743 731 722 718 715 715 715 712 711 710 703 697 695 690 683 679 680 676 674 676 676 676 682 685 685 689 691 688 683 682 685 686 684 683 684 683 680 684 691 692 693 693 698 711 718 713 714 717 716 716 713 709 712 720 724 722 719 717 717 716 722 735 739 737 748 758 749 750 765 766 758 758 760 761 766 769 771 774 777 780 782 783 786 788 790
777 764 752 747 742 731 722 716 711 709 707 706 704 701 696 694 690 684 679 675 671 673 681 682 677 678 680 681 687 691 688 687 687 686 685 683 682 686 690 686 685 690 693 694 694 698 712 720 712 711 716 711 707 708 708 712 718 718 716 716 715 716 719 726 733 731 733 748 755 746 747 759 759 752 753 755 758 764 767 770 773 777 779 780 783 785 787 789
776 766 755 752 749 740 731 724 716 711 707 703 701 698 695 693 688 681 677 676 674 673 679 686 683 677 674 674 680 685 686 690 695 689 681 680 681 687 695 694 688 688 693 697 696 698 711 719 711 710 714 711 707 708 708 715 719 716 714 714 714 716 720 726 733 732 734 741 742 738 743 748 745 743 744 749 756 760 764 769 773 775 778 779 781 783 784 787
779 775 770 765 758 747 738 730 723 718 710 705 704 696 690 690 688 680 674 674 677 674 673 681 682 675 673 672 674 677 677 681 689 687 679 681 684 686 693 697 691 690 695 699 697 699 712 719 710 708 715 714 707 706 709 717 722 720 718 715 713 717 722 727 733 735 738 742 739 739 746 746 738 734 738 747 754 757 764 770 771 773 775 777 779 780 782 785
784 782 781 778 766 752 741 732 725 722 715 707 703 694 686 684 683 681 675 667 669 671 669 675 678 673 673 674 673 672 669 669 676 677 674 677 679 680 687 689 688 694 698 697 698 704 714 718 710 713 725 721 709 708 712 716 722 725 724 720 717 720 724 727 731 733 738 744 744 747 753 748 737 734 741 748 753 759 766 769 769 772 773 775 778 780 782 785
787 785 783 781 770 755 746 737 728 725 718 706 698 690 685 681 676 678 679 670 663 662 661 665 672 672 674 677 673 668 664 662 664 665 665 667 666 670 679 680 681 690 696 694 698 704 711 716 714 718 730 727 713 709 710 717 734 738 727 719 719 720 722 724 726 728 731 737 745 751 751 745 738 740 748 754 757 762 765 765 768 771 771 774 777 779 783 786